Location: Laterina
(43.5167°N, 11.7167°E)
Time: 14:08:28
(UTC+00:00)

Cosmos 2026 Rocket - Pass Details

Date: 19 January 2021
Orbit: 940 x 1000 km, 82.9° (Epoch: 28 February)

Event Time Altitude Azimuth Distance (km) Brightness Sun altitude
Rises 17:22:58 0° 149° (SSE) 3,597 6.8 -13.6°
Reaches altitude 10° 17:25:51 10° 137° (SE) 2,663 6.0 -14.1°
Maximum altitude 17:30:40 25° 84° (E) 1,822 4.8 -14.9°
Enters shadow 17:34:03 16° 42° (NE) 2,299 5.5 -15.5°
